{"data":{"norad_id":58078,"intl_designator":"2023-160D","name":"STARLINK-30597","alt_names":[],"object_type":"PAYLOAD","status":"ACTIVE","operator":null,"country":"US","launch_date":"2023-10-18","launch_site_code":"AFETR","launch_vehicle":null,"mission":null,"orbit_class":"UNKNOWN","rcs_meters":null,"size_class":null,"mass_kg":null,"dimensions":null,"purposes":["comms"],"wikipedia_slug":null,"has_3d_model":false,"image_url":null,"decayed_at":null,"tle_current":{"epoch":"2026-09-17T19:49:01.820928Z","epoch_age_seconds":368756,"freshness":"STALE","line1":"1 58078U 23160D   26260.82571552 -.00002685  00000+0 -88141-4 0  9999","line2":"2 58078  43.0020  72.5245 0001531 262.1978  97.8700 15.27552397162331","mean_motion":15.27552397,"eccentricity":0.0001531,"inclination_deg":43.002,"raan_deg":72.5245,"arg_perigee_deg":262.1978,"mean_anomaly_deg":97.87,"bstar":-8.8141e-5,"rev_number":16233,"period_min":94.268452121711,"perigee_km":482.08129035069,"apogee_km":484.18221084212,"semimajor_km":6861.2687505964,"source":"CELESTRAK","updated_at":"2026-09-21T09:00:33.781893Z"}}}